Powrót do katalogu

SL-8 R/B

AktywnyPO
NORAD 17240·ROCKET BODY·🇷🇺 Russia

Wystrzelony Dec 17, 1986 z Plesetsk Cosmodrome

Loading…

Następne Przeloty (najbliższe 24 godziny)

TLE

ŚwieżeSource: Space-Track

Epoka: Sep 14, 2026, 17:09 UTC

1 17240U 86100B   26257.71472899 -.00000052  00000-0 -71490-4 0  9992
2 17240  82.9277  66.7479 0029792 172.3223 198.2759 13.74297534633647

Śledź SL-8 R/B w czasie rzeczywistym z AllMySat

Download on the App Store